KB6CYS Weather Reports


Display with metric or nautical units.
time (UTC)temp
F
wind
direction
speed
MPH
gust
MPH
rain 1hr
in
rain 24hr
in
rain mn
in
humidity
%
barometer
mb
20260903192502 78 203 5.0 12.0 0.00 0.00 0.00 1012.9
20260903192003 78 215 7.0 14.0 0.00 0.00 0.00 1013.6
20260903191502 78 185 6.0 14.0 0.00 0.00 0.00 1013.6
20260903191002 78 195 6.0 10.0 0.00 0.00 0.00 1013.2
20260903190502 78 181 5.0 15.0 0.00 0.00 0.00 1013.2
20260903190023 78 184 9.0 15.0 0.00 0.00 0.00 1013.6
20260903185502 78 208 6.0 12.0 0.00 0.00 0.00 1013.2
20260903185002 77 177 7.0 12.0 0.00 0.00 0.00 1013.6
20260903184502 76 168 5.0 9.0 0.00 0.00 0.00 1013.9
20260903184002 75 220 4.0 8.0 0.00 0.00 0.00 1013.6
20260903183502 75 289 3.0 9.0 0.00 0.00 0.00 1013.6
20260903183004 75 253 5.0 9.0 0.00 0.00 0.00 1013.9
20260903182502 76 211 3.0 9.0 0.00 0.00 0.00 1013.6
20260903182002 75 207 5.0 11.0 0.00 0.00 0.00 1013.6
20260903181502 75 207 6.0 11.0 0.00 0.00 0.00 1013.9
20260903181002 75 219 3.0 8.0 0.00 0.00 0.00 1013.6
20260903180502 77 115 4.0 7.0 0.00 0.00 0.00 1013.9
20260903180002 76 184 2.0 8.0 0.00 0.00 0.00 1013.6
20260903175503 76 161 2.0 8.0 0.00 0.00 0.00 1013.6
20260903175002 75 200 3.0 8.0 0.00 0.00 0.00 1013.6
20260903174502 75 178 3.0 10.0 0.00 0.00 0.00 1013.2
20260903174003 74 181 3.0 10.0 0.00 0.00 0.00 1013.2
20260903173502 73 218 5.0 9.0 0.00 0.00 0.00 1013.6
20260903173024 74 232 3.0 9.0 0.00 0.00 0.00 1013.6
20260903172503 75 83 1.0 7.0 0.00 0.00 0.00 1013.6
20260903172002 75 115 3.0 9.0 0.00 0.00 0.00 1013.6
20260903171502 74 133 4.0 9.0 0.00 0.00 0.00 1013.6
20260903171003 73 258 1.0 7.0 0.00 0.00 0.00 1013.6
20260903170504 73 176 4.0 7.0 0.00 0.00 0.00 1013.6
20260903170003 72 242 2.0 6.0 0.00 0.00 0.00 1013.6
20260903165502 73 225 2.0 9.0 0.00 0.00 0.00 1013.6
20260903165004 73 127 3.0 9.0 0.00 0.00 0.00 1013.9
20260903164503 73 194 4.0 7.0 0.00 0.00 0.00 1013.9
20260903164002 73 192 3.0 6.0 0.00 0.00 0.00 1013.6
20260903163523 72 200 3.0 6.0 0.00 0.00 0.00 1013.6
20260903163002 71 163 2.0 6.0 0.00 0.00 0.00 1014.3
20260903162502 72 235 3.0 6.0 0.00 0.00 0.00 1013.9
20260903162003 71 183 3.0 6.0 0.00 0.00 0.00 1013.6
20260903161503 71 231 2.0 7.0 0.00 0.00 0.00 1013.6
20260903161024 71 214 3.0 7.0 0.00 0.00 0.00 1013.6
20260903160503 71 215 3.0 6.0 0.00 0.00 0.00 1013.2
20260903160002 71 201 2.0 4.0 0.00 0.00 0.00 1013.6
20260903155501 70 190 2.0 5.0 0.00 0.00 0.00 1013.9
20260903155023 70 183 2.0 5.0 0.00 0.00 0.00 1014.3
20260903154502 70 211 2.0 5.0 0.00 0.00 0.00 1013.6
20260903154024 70 166 2.0 5.0 0.00 0.00 0.00 1013.6
20260903153502 70 80 2.0 4.0 0.00 0.00 0.00 1013.6
20260903153023 69 77 3.0 5.0 0.00 0.00 0.00 1013.9
20260903152503 68 104 2.0 5.0 0.00 0.00 0.00 1013.9
20260903152002 68 134 2.0 4.0 0.00 0.00 0.00 1013.6
20260903151502 68 81 3.0 5.0 0.00 0.00 0.00 1013.6
20260903151002 67 84 3.0 5.0 0.00 0.00 0.00 1013.6
20260903150502 67 97 2.0 6.0 0.00 0.00 0.00 1013.9
20260903150001 66 92 3.0 6.0 0.00 0.00 0.00 1014.3
20260903145502 66 131 2.0 6.0 0.00 0.00 0.00 1013.6
20260903145003 66 83 3.0 6.0 0.00 0.00 0.00 1013.6
20260903144524 66 95 3.0 5.0 0.00 0.00 0.00 1013.6
20260903144002 66 135 2.0 5.0 0.00 0.00 0.00 1013.6
20260903143502 65 72 3.0 5.0 0.00 0.00 0.00 1013.2
20260903143024 65 80 1.0 4.0 0.00 0.00 0.00 1013.2
20260903142524 64 91 2.0 4.0 0.00 0.00 0.00 1013.2
20260903142002 64 121 1.0 5.0 0.00 0.00 0.00 1013.6
20260903141502 64 72 3.0 5.0 0.00 0.00 0.00 1013.6
20260903141003 64 69 1.0 3.0 0.00 0.00 0.00 1013.6
20260903140502 64 95 1.0 3.0 0.00 0.00 0.00 1013.6
20260903140002 64 131 2.0 3.0 0.00 0.00 0.00 1013.6
20260903135503 64 88 1.0 3.0 0.00 0.00 0.00 1013.2
20260903135024 64 66 1.0 2.0 0.00 0.00 0.00 1012.9
20260903134523 64 90 1.0 2.0 0.00 0.00 0.00 1012.9
20260903134003 64 90 1.0 4.0 0.00 0.00 0.00 1013.2
20260903133502 63 69 2.0 4.0 0.00 0.00 0.00 1012.9
20260903133023 63 53 2.0 4.0 0.00 0.00 0.00 1012.9
20260903132502 63 51 2.0 4.0 0.00 0.00 0.00 1012.9
20260903132024 63 65 2.0 4.0 0.00 0.00 0.00 1012.9
20260903131502 63 62 2.0 4.0 0.00 0.00 0.00 1013.2
20260903131002 64 76 2.0 4.0 0.00 0.00 0.00 1013.6
20260903130501 64 65 1.0 3.0 0.00 0.00 0.00 1013.6
20260903130002 64 66 2.0 5.0 0.00 0.00 0.00 1013.2
20260903125502 63 62 2.0 5.0 0.00 0.00 0.00 1012.9
20260903125003 64 54 1.0 4.0 0.00 0.00 0.00 1013.2
20260903124505 63 71 2.0 5.0 0.00 0.00 0.00 1013.9
20260903124003 63 72 3.0 5.0 0.00 0.00 0.00 1013.6
20260903123502 64 65 3.0 5.0 0.00 0.00 0.00 1013.2
20260903123024 64 70 2.0 5.0 0.00 0.00 0.00 1013.2
20260903122502 64 66 2.0 5.0 0.00 0.00 0.00 1013.2
20260903122002 64 77 3.0 5.0 0.00 0.00 0.00 1012.9
20260903121503 64 70 2.0 3.0 0.00 0.00 0.00 1013.2
20260903121003 64 72 2.0 3.0 0.00 0.00 0.00 1013.6
20260903120502 64 82 1.0 3.0 0.00 0.00 0.00 1013.6
20260903120002 64 88 1.0 3.0 0.00 0.00 0.00 1013.6
20260903115502 64 73 1.0 3.0 0.00 0.00 0.00 1013.6
20260903115004 64 99 1.0 3.0 0.00 0.00 0.00 1013.6
20260903114503 64 99 1.0 4.0 0.00 0.00 0.00 1013.6
20260903114002 64 73 2.0 4.0 0.00 0.00 0.00 1013.6
20260903113503 64 74 2.0 3.0 0.00 0.00 0.00 1013.6
20260903113002 64 85 2.0 3.0 0.00 0.00 0.00 1013.9
20260903112503 64 96 2.0 3.0 0.00 0.00 0.00 1013.9
20260903112002 64 97 2.0 3.0 0.00 0.00 0.00 1013.9
20260903111502 65 91 2.0 3.0 0.00 0.00 0.00 1013.6
20260903111002 65 90 1.0 3.0 0.00 0.00 0.00 1013.9
20260903110502 65 83 2.0 3.0 0.00 0.00 0.00 1013.9
20260903110002 65 83 2.0 3.0 0.00 0.00 0.00 1013.6
20260903105525 65 67 2.0 3.0 0.00 0.00 0.00 1013.6
20260903105002 64 72 2.0 3.0 0.00 0.00 0.00 1013.9
20260903104524 65 117 2.0 3.0 0.00 0.00 0.00 1013.9
20260903104002 65 157 0.0 2.0 0.00 0.00 0.00 1013.6
20260903103503 65 122 0.0 2.0 0.00 0.00 0.00 1013.6
20260903103003 65 98 1.0 3.0 0.00 0.00 0.00 1013.9
20260903102524 65 87 2.0 3.0 0.00 0.00 0.00 1013.9
20260903102003 65 83 2.0 3.0 0.00 0.00 0.00 1013.9
20260903101502 65 77 2.0 3.0 0.00 0.00 0.00 1013.9
20260903101003 65 79 2.0 3.0 0.00 0.00 0.00 1013.9
20260903100502 65 90 2.0 3.0 0.00 0.00 0.00 1013.9
20260903100002 65 80 2.0 3.0 0.00 0.00 0.00 1014.3
20260903095502 65 83 1.0 3.0 0.00 0.00 0.00 1014.3
20260903095002 65 91 2.0 3.0 0.00 0.00 0.00 1014.3
20260903094503 65 98 2.0 3.0 0.00 0.00 0.00 1013.6
20260903094023 65 89 2.0 3.0 0.00 0.00 0.00 1014.3
20260903093524 65 86 2.0 3.0 0.00 0.00 0.00 1013.9
20260903093002 65 83 2.0 3.0 0.00 0.00 0.00 1013.6
20260903092503 65 84 2.0 3.0 0.00 0.00 0.00 1013.9
20260903092003 65 94 2.0 3.0 0.00 0.00 0.00 1013.6
20260903091524 65 92 1.0 3.0 0.00 0.00 0.00 1013.9
20260903091024 65 108 1.0 3.0 0.00 0.00 0.00 1014.6
20260903090503 65 92 2.0 3.0 0.00 0.00 0.00 1014.6
20260903090002 66 87 2.0 3.0 0.00 0.00 0.00 1014.3
20260903085502 66 90 2.0 2.0 0.00 0.00 0.00 1014.3
20260903085002 66 85 2.0 2.0 0.00 0.00 0.00 1014.6
20260903084502 66 98 1.0 2.0 0.00 0.00 0.00 1014.6
20260903084003 66 86 1.0 2.0 0.00 0.00 0.00 1014.6
20260903083503 66 90 1.0 2.0 0.00 0.00 0.00 1015.3
20260903083002 66 105 1.0 2.0 0.00 0.00 0.00 1015.3
20260903082503 66 81 2.0 2.0 0.00 0.00 0.00 1014.9
20260903082002 66 89 1.0 2.0 0.00 0.00 0.00 1014.9
20260903081503 66 90 0.0 0.0 0.00 0.00 0.00 1014.9
20260903081002 66 90 0.0 1.0 0.00 0.00 0.00 1014.9
20260903080502 66 113 0.0 1.0 0.00 0.00 0.00 1014.9
20260903080003 66 113 0.0 1.0 0.00 0.00 0.00 1014.6
20260903075503 66 90 0.0 1.0 0.00 0.00 0.00 1014.9
20260903075002 66 90 0.0 1.0 0.00 0.00 0.00 1014.6
20260903074502 67 90 0.0 0.0 0.00 0.00 0.00 1014.6
20260903074002 67 90 0.0 1.0 0.00 0.00 0.00 1015.3
20260903073524 67 90 0.0 2.0 0.00 0.00 0.00 1014.9
20260903073025 67 90 1.0 2.0 0.00 0.00 0.00 1014.9
20260903072503 67 90 0.0 2.0 0.00 0.00 0.00 1014.6
20260903072003 67 120 1.0 2.0 0.00 0.00 0.00 1015.3
20260903071503 67 171 1.0 2.0 0.00 0.00 0.00 1014.9
20260903071002 67 156 1.0 2.0 0.00 0.00 0.00 1015.3
20260903070502 67 125 1.0 2.0 0.00 0.00 0.00 1015.3
20260903070003 67 127 1.0 2.0 0.00 0.00 0.00 1015.3
20260903065503 67 127 1.0 3.0 0.00 0.00 0.00 1014.6
20260903065002 67 145 1.0 3.0 0.00 0.00 0.00 1014.6
20260903064502 67 165 1.0 2.0 0.00 0.00 0.00 1014.9
20260903064002 67 154 1.0 2.0 0.00 0.00 0.00 1014.9
20260903063502 67 115 1.0 2.0 0.00 0.00 0.00 1014.6
20260903063004 67 99 1.0 2.0 0.00 0.00 0.00 1014.6
20260903062503 67 128 1.0 2.0 0.00 0.00 0.00 1014.6
20260903062003 67 131 1.0 3.0 0.00 0.00 0.00 1014.9
20260903061503 67 134 1.0 3.0 0.00 0.00 0.00 1014.3
20260903061002 68 145 1.0 5.0 0.00 0.00 0.00 1014.9
20260903060503 68 129 1.0 5.0 0.00 0.00 0.00 1014.6
20260903060002 68 138 1.0 3.0 0.00 0.00 0.00 1014.3
20260903055524 68 156 2.0 3.0 0.00 0.00 0.00 1014.3
20260903055024 68 160 1.0 3.0 0.00 0.00 0.00 1014.3
20260903054502 68 137 1.0 3.0 0.00 0.00 0.00 1013.9
20260903054003 68 116 2.0 3.0 0.00 0.00 0.00 1014.3
20260903053503 68 114 2.0 3.0 0.00 0.00 0.00 1014.3
20260903053024 68 103 1.0 2.0 0.00 0.00 0.00 1014.6
20260903052502 69 102 1.0 3.0 0.00 0.00 0.00 1014.6
20260903052002 69 118 1.0 3.0 0.00 0.00 0.00 1014.3
20260903051524 69 9 1.0 3.0 0.00 0.00 0.00 1014.3
20260903051004 70 117 1.0 3.0 0.00 0.00 0.00 1014.6
20260903050502 70 201 1.0 2.0 0.00 0.00 0.00 1014.9
20260903050024 70 207 1.0 2.0 0.00 0.00 0.00 1014.6
20260903045503 70 178 1.0 2.0 0.00 0.00 0.00 1014.3
20260903045002 70 203 0.0 2.0 0.00 0.00 0.00 1013.9
20260903044502 70 202 0.0 2.0 0.00 0.00 0.00 1014.3
20260903044003 70 225 1.0 3.0 0.00 0.00 0.00 1014.3
20260903043502 70 178 2.0 3.0 0.00 0.00 0.00 1014.3
20260903043003 70 175 1.0 3.0 0.00 0.00 0.00 1014.6
20260903042502 70 191 2.0 3.0 0.00 0.00 0.00 1014.3
20260903042002 70 202 1.0 4.0 0.00 0.00 0.00 1014.6
20260903041503 69 208 2.0 4.0 0.00 0.00 0.00 1013.6
20260903041002 69 222 2.0 5.0 0.00 0.00 0.00 1014.3
20260903040524 69 274 3.0 6.0 0.00 0.00 0.00 1014.3
20260903040002 69 256 3.0 9.0 0.00 0.00 0.00 1013.9
20260903035503 69 259 3.0 9.0 0.00 0.00 0.00 1014.3
20260903035003 70 260 3.0 8.0 0.00 0.00 0.00 1013.9
20260903034524 70 264 3.0 8.0 0.00 0.00 0.00 1013.9
20260903034002 69 284 3.0 8.0 0.00 0.00 0.00 1014.3
20260903033502 70 263 5.0 8.0 0.00 0.00 0.00 1013.6
20260903033024 70 261 4.0 7.0 0.00 0.00 0.00 1013.6
20260903032503 70 260 3.0 8.0 0.00 0.00 0.00 1013.6
20260903032004 70 256 4.0 9.0 0.00 0.00 0.00 1013.6
20260903031502 70 249 5.0 9.0 0.00 0.00 0.00 1013.6
20260903031025 70 266 5.0 9.0 0.00 0.00 0.00 1013.6
20260903030503 70 258 5.0 10.0 0.00 0.00 0.00 1013.2
20260903030024 70 252 6.0 10.0 0.00 0.00 0.00 1012.9
20260903025504 71 255 5.0 9.0 0.00 0.00 0.00 1012.9
20260903025002 71 260 3.0 5.0 0.00 0.00 0.00 1012.9
20260903024502 71 289 3.0 8.0 0.00 0.00 0.00 1013.2
20260903024025 71 269 5.0 8.0 0.00 0.00 0.00 1012.9
20260903023524 71 267 3.0 9.0 0.00 0.00 0.00 1012.9
20260903023024 72 242 5.0 9.0 0.00 0.00 0.00 1013.2
20260903022502 72 282 5.0 9.0 0.00 0.00 0.00 1012.9
20260903022003 72 258 6.0 9.0 0.00 0.00 0.00 1013.2
20260903021502 72 238 6.0 12.0 0.00 0.00 0.00 1012.6
20260903021003 73 256 6.0 12.0 0.00 0.00 0.00 1013.2
20260903020503 73 263 5.0 11.0 0.00 0.00 0.00 1012.9
20260903020024 73 248 7.0 11.0 0.00 0.00 0.00 1012.6
20260903015503 74 263 6.0 14.0 0.00 0.00 0.00 1012.9
20260903015003 74 278 8.0 14.0 0.00 0.00 0.00 1013.2
20260903014502 74 263 6.0 13.0 0.00 0.00 0.00 1012.9
20260903014003 75 256 7.0 15.0 0.00 0.00 0.00 1012.9
20260903013503 75 268 8.0 15.0 0.00 0.00 0.00 1012.9
20260903013002 76 261 8.0 12.0 0.00 0.00 0.00 1012.9
20260903012503 77 280 7.0 12.0 0.00 0.00 0.00 1012.9
20260903012003 77 251 6.0 12.0 0.00 0.00 0.00 1012.9
20260903011502 77 281 8.0 14.0 0.00 0.00 0.00 1013.2
20260903011024 77 260 5.0 14.0 0.00 0.00 0.00 1013.6
20260903010503 77 269 8.0 13.0 0.00 0.00 0.00 1013.2
20260903010003 77 259 8.0 14.0 0.00 0.00 0.00 1012.9
20260903005503 78 282 6.0 15.0 0.00 0.00 0.00 1013.6
20260903005002 78 276 8.0 15.0 0.00 0.00 0.00 1013.6
20260903004525 78 273 6.0 15.0 0.00 0.00 0.00 1013.6
20260903004003 78 277 8.0 15.0 0.00 0.00 0.00 1013.2
20260903003502 78 276 9.0 15.0 0.00 0.00 0.00 1013.6
20260903003002 79 282 5.0 15.0 0.00 0.00 0.00 1013.6
20260903002503 79 271 9.0 15.0 0.00 0.00 0.00 1013.6
20260903002003 79 286 8.0 14.0 0.00 0.00 0.00 1013.2
20260903001502 81 279 8.0 14.0 0.00 0.00 0.00 1013.2
20260903001002 81 282 7.0 12.0 0.00 0.00 0.00 1013.2
20260903000525 82 220 7.0 10.0 0.00 0.00 0.00 1013.2
20260903000002 82 219 6.0 10.0 0.00 0.00 0.00 1013.2
20260902235503 81 205 4.0 12.0 0.00 0.00 0.00 1013.2
20260902235003 81 168 6.0 12.0 0.00 0.00 0.00 1013.6
20260902234503 82 200 6.0 11.0 0.00 0.00 0.00 1013.2
20260902234003 82 186 6.0 10.0 0.00 0.00 0.00 1013.6
20260902233502 82 186 5.0 11.0 0.00 0.00 0.00 1013.2
20260902233002 82 186 5.0 11.0 0.00 0.00 0.00 1013.2
20260902232503 81 198 5.0 12.0 0.00 0.00 0.00 1013.6
20260902232003 81 213 6.0 12.0 0.00 0.00 0.00 1013.6
20260902231503 81 221 7.0 12.0 0.00 0.00 0.00 1013.6
20260902231024 81 227 6.0 12.0 0.00 0.00 0.00 1012.9
20260902230503 81 208 5.0 12.0 0.00 0.00 0.00 1012.6
20260902230002 81 223 8.0 11.0 0.00 0.00 0.00 1012.9
20260902225524 81 222 7.0 13.0 0.00 0.00 0.00 1013.2
20260902225003 81 222 7.0 13.0 0.00 0.00 0.00 1013.2
20260902224503 82 207 7.0 12.0 0.00 0.00 0.00 1013.9
20260902224002 81 194 6.0 12.0 0.00 0.00 0.00 1014.3
20260902223502 81 221 5.0 11.0 0.00 0.00 0.00 1013.9
20260902223024 81 241 6.0 12.0 0.00 0.00 0.00 1013.6
20260902222503 81 214 7.0 13.0 0.00 0.00 0.00 1013.6
20260902222003 81 224 8.0 13.0 0.00 0.00 0.00 1014.3
20260902221502 81 215 4.0 13.0 0.00 0.00 0.00 1013.9
20260902221002 81 207 6.0 12.0 0.00 0.00 0.00 1013.6
20260902220503 81 210 5.0 12.0 0.00 0.00 0.00 1013.9
20260902220004 80 200 6.0 13.0 0.00 0.00 0.00 1013.9
20260902215525 80 228 7.0 14.0 0.00 0.00 0.00 1013.6
20260902215002 81 213 5.0 14.0 0.00 0.00 0.00 1013.9
20260902214524 81 232 8.0 13.0 0.00 0.00 0.00 1014.3
20260902214002 80 206 6.0 12.0 0.00 0.00 0.00 1013.9
20260902213502 80 221 5.0 14.0 0.00 0.00 0.00 1013.9
20260902213003 79 241 7.0 14.0 0.00 0.00 0.00 1014.6
20260902212503 79 223 6.0 12.0 0.00 0.00 0.00 1014.3
20260902212003 80 188 7.0 12.0 0.00 0.00 0.00 1014.3
20260902211503 79 238 8.0 13.0 0.00 0.00 0.00 1013.6
20260902211003 79 226 6.0 13.0 0.00 0.00 0.00 1014.3
20260902210503 80 230 7.0 11.0 0.00 0.00 0.00 1014.6
20260902210002 81 207 7.0 13.0 0.00 0.00 0.00 1013.9
20260902205503 81 202 6.0 14.0 0.00 0.00 0.00 1014.6
20260902205002 80 215 7.0 14.0 0.00 0.00 0.00 1014.6
20260902204502 79 195 5.0 12.0 0.00 0.00 0.00 1014.3
20260902204003 80 234 5.0 10.0 0.00 0.00 0.00 1014.9
20260902203524 81 182 4.0 12.0 0.00 0.00 0.00 1014.9
20260902203002 80 215 5.0 12.0 0.00 0.00 0.00 1014.9
20260902202503 80 218 6.0 12.0 0.00 0.00 0.00 1014.9
20260902202003 80 209 6.0 11.0 0.00 0.00 0.00 1014.9
20260902201503 80 223 6.0 11.0 0.00 0.00 0.00 1014.3
20260902201024 79 188 3.0 9.0 0.00 0.00 0.00 1014.3
20260902200503 79 235 3.0 10.0 0.00 0.00 0.00 1014.6
20260902200004 79 238 5.0 10.0 0.00 0.00 0.00 1014.6
20260902195503 80 213 3.0 11.0 0.00 0.00 0.00 1014.3
20260902195003 79 211 7.0 11.0 0.00 0.00 0.00 1014.3
20260902194502 79 233 4.0 8.0 0.00 0.00 0.00 1014.9
20260902194004 78 186 3.0 9.0 0.00 0.00 0.00 1014.6
20260902193503 77 231 7.0 9.0 0.00 0.00 0.00 1014.9
20260902193002 77 228 2.0 9.0 0.00 0.00 0.00 1014.9